Super royal flush jackpot กำลังจะเกิดขึ้นทีนี้

เข้าร่วมกับรางวัลระดับโลกปัจจุบันที่มีอยู่แล้วในเกมของเรากับระบบแจ็คพอตล่าสุดและผลตอบแทนที่ใหญ่กว่าที่คุณสามารถซื้อแจ็คพอตที่ราคาขนาดเล็กเป็น 100 ชิป

แจ็คพอตไม่ต้องซื้อ แต่เราให้เป็นคุณสมบัติพิเศษให้กับสมาชิกของ siampoker.net

ระบบจะมีรางวัลโบนัสเพิ่มขึ้น siampoker.net ให้ติดตาม

  1. Full House X 10 ราคาแจ็คพอตที่คุณจะซื้อ
      (ตัวอย่าง: คุณซื้อ 1,000 ชิพแล้ว: 1000 X 10 = 10,000)
  2. Four of a Kind X 250 ราคาแจ็คพอตที่คุณจะซื้อ
      (ตัวอย่าง: คุณซื้อ 1,000 ชิพแล้ว: 1000 x 250 = 250,000)
  3. Straight Flush x 1,200 ราคาแจ็คพอตที่คุณจะซื้อ
      ((ตัวอย่าง: คุณซื้อ 1,000 ชิพแล้ว: 1000 x 1,200 = 1,200,000)
  4. Royal Flush X 10,000 ราคาแจ็คพอตที่คุณจะซื้อ
      (ตัวอย่าง: คุณซื้อ 1,000 ชิพแล้ว: 1000 x 10,000 = 10,000,000)
  5. Super Royal Flush X 30,000 ราคาแจ็คพอตที่คุณจะซื้อ
      (ตัวอย่างเช่น: คุณซื้อ 0.1 แล้ว: 1000 × 30,000 = 30,000,000)

หมายเหตุ:
อย่างน้อย ผู้เล่นทั้ง 2 คนจะต้องมีการการเปิดไพ่หลังจากหลังจากหมดรอบการเดิมพันทั้งหมด เพื่อที่จะชนะแจ๊คพอต หากผู้เล่นคนอื่นๆ หมอบ ทั้งหมด คุณจะไม่มีสิทธิ์รับแจ๊คพอต

เงื่อนไขการใช้บัตร:

  1. Full House เงื่อนไขในการที่บัตรของคุณและบัตรกลางมีทั้งหมด 7 บัตรจะได้รับไพ่ 5 ใบที่มีมูลค่ารวม 1 คู่ในไพ่สามใบ เช่น 3 ใบ 10 และ 2 ใบของ 5/li>
  2. Four of a Kind เงื่อนไขในการที่บัตรของคุณและบัตรกลางมีทั้งหมด 7 บัตรจะได้รับไพ่ 5 ใบที่มีมูลค่ารวมของไพ่ 4 ใบจำนวนเดียวกันและหนึ่ง (1) บัตร ตัวอย่างเช่นคุณจะได้รับ 4 ใบจาก 3 บัตร (3 S, 3 H, 3-C, 3-D) และบัตร 1 ของชนิด/li>
  3. เStraight Flush เงื่อนไขในการที่บัตรของคุณและบัตรกลางมีทั้งหมด 7 บัตรจะได้รับไพ่ 5 ใบที่มีดอกเดียวกันและมูลค่าต่อเนื่องเช่นบัตรของคุณอาจลำดับ 5-h, 6-h, 7-h, 8-h, 9-h 10-h.
  4. Royal Flush เงื่อนไขในการที่บัตรของคุณและบัตรกลางมีทั้งหมด 7 บัตรจะได้รับไพ่ 5 ใบที่มีดอกเดียวกันและมูลค่าต่อเนื่องกันกับการ์ดที่เล็กที่สุดในลำดับที่ 10 เช่น 10-s, J-s, Q-s, K-s, และ A-s.
  5. Super Royal flush เงื่อนไขที่ไพ่สองใบที่คุณมีอยู่ในมือรวมกับ 3 อันดับแรกเปิดไพ่บนโต๊ะที่มีอยู่แล้วรอยัลฟลัช ตัวอย่างเช่นครั้งแรกของคุณ 2 ใบในมือเป็น 10 และ Qs และอีก 3 บัตรทีโชว์อยู่บนโต๊ะเป็น J-s, K-s, และ A-s.

คำอธิบายดังกล่าวข้างต้นเป็นคำอธิบาย ของหลายแจ็คพอตที่siampoker.netขอขอบคุณและขอแสดงความยินดีในการเล่นเกมของเรา เราหวังว่าทุกท่านโชคดี!

ซูเปอร์รอยัลฟลัช
ลำดับที่ วันที่ ชื่อ แจ๊คพอต ชนะ
รอยัลฟลัช
ลำดับที่ วันที่ ชื่อ แจ๊คพอต ชนะ
ตรงชักโครก
ลำดับที่ วันที่ ชื่อ แจ๊คพอต ชนะ
1 24/09 01:05 ASUSA6 ตรงชักโครก 5,581.39
Last Jackpot
ลำดับที่ วันที่ ชื่อ แจ๊คพอต ชนะ
1 24/09 08:42 S111P0000 1.16
2 24/09 08:42 DEWAUANG01 0.23
3 24/09 08:42 CARETUBO28 0.11
4 24/09 08:42 WIREREJO 1.16
5 24/09 08:42 P0005580490 0.23
6 24/09 08:42 KDDLY894 0.11
7 24/09 08:42 P0010625877 0.46
8 24/09 08:41 JENGLOT96 2.32
9 24/09 08:41 F331B5947A1975 2.32
10 24/09 08:41 MIUN988 0.46
11 24/09 08:41 DIV57 0.23
12 24/09 08:41 B8000E19BFB96 0.46
13 24/09 08:41 KOMAR1994 4.65
14 24/09 08:41 SARAGIHHH 0.23
15 24/09 08:41 OKESAJA3 0.23
16 24/09 08:41 HITAUKE88 0.46
17 24/09 08:41 ALVAROPUTR 0.11
18 24/09 08:41 NUR_HERA_R 4.65
19 24/09 08:41 DYA4444 0.46
20 24/09 08:41 KLA2499 1.16
21 24/09 08:41 GAWANGAN 2.32
22 24/09 08:41 CBDLUCKY 1.16
23 24/09 08:41 TUWEKPUNK 0.46
24 24/09 08:41 RONKSOK_99 0.46
25 24/09 08:41 BANGRAIN 0.23
26 24/09 08:41 Y389DOKTER 4.65
27 24/09 08:41 RAHMAN06 2.32
28 24/09 08:41 YASMINSALS 1.16
29 24/09 08:41 LUVV11 0.23
30 24/09 08:41 LOCKING12 0.46
31 24/09 08:41 HANDAR3 0.23
32 24/09 08:41 JENDI8878 0.46
33 24/09 08:41 NIZAM81 0.46
34 24/09 08:41 HOP61 1.16
35 24/09 08:41 TAMA_ 2.32
36 24/09 08:41 LFRUTWFMPE 2.32
37 24/09 08:41 LOGIN445 0.46
38 24/09 08:41 VIA12344 1.16
39 24/09 08:41 KULO780 1.16
40 24/09 08:41 VPROZ888 1.16
41 24/09 08:41 LUCKMAN 0.23
42 24/09 08:41 JAYA230491 0.46
43 24/09 08:41 AAAALTTI11 4.65
44 24/09 08:41 REJAMANALU 4.65
45 24/09 08:41 ZUBE99999 0.46
46 24/09 08:41 KAP0LDA 4.65
47 24/09 08:41 WIWITEMPIR 2.32
48 24/09 08:41 PIASUNDA07 0.46
49 24/09 08:40 MMFD2T3ZLZ 0.46
50 24/09 08:40 DEOBAND3L 0.46
Domino Multi Jackpot System

เข้าร่วมกับรางวัลระดับโลกในปัจจุบันที่มีอยู่แล้วในระบบของเรากับระบบแจ็คพอตใหม่ล่าสุดและเป็นครั้งแรกในประเทศอินโดนีเซียที่คุณสามารถซื้อแจ็คพอตในราคาเพียง 100 และมีโอกาสที่จะชนะ

แจ็คพ็อตไม่จำเป็นที่จะต้องซื้อ แต่เราให้มันเป็นคุณสมบัติพิเศษให้กับสมาชิกของ siampoker.net

มีแจ็คพอต 4 ราคาที่คุณสามารถเลือกที่จะซื้อ: USD 100, 500, 1000 และ 2000 (เฉพาะโต๊ะวีไอพีพิเศษและด้านบน)

รางวัลแจ็คพอตหลายระบบใน siampoker.net ดังต่อไปนี้:

  1. small Pure X 50 ราคาแจ็คพอตที่คุณจะซื้อ
      (ตัวอย่าง: คุณซื้อแล้ว 100 X 50 = 5000)
  2. Large Pure X 50 แจ็คพอตที่คุณจะซื้อ
      (ตัวอย่าง: คุณซื้อแล้ว 100 X 50 = 5000)
  3. Doublet X 150 ราคาแจ็คพอตที่คุณจะซื้อ
      (ตัวอย่าง: คุณซื้อแล้ว 100 X 150 = 15000)
  4. Six Dewa X ราคา 6,666 แจ็คพอตที่ที่คุณจะซื้อ
      (ตัวอย่าง: คุณซื้อแล้ว 100 X 6666 = 666600)

คำอธิบายดังกล่าวข้างต้นเป็นคำอธิบาย ของหลายแจ็คพอตที่ siampoker.net ขอขอบคุณและขอแสดงความยินดีในการเล่นเกมของเรา เราหวังว่าทุกท่านโชคดี!

TOP SIX DEWA
ลำดับที่ วันที่ ชื่อ แจ๊คพอต ชนะ
1 24/09 08:11 MORANG73 SIX GOD 2.32
2 24/09 08:10 CASHAL SIX GOD 1.16
3 24/09 08:02 LEWA SIX GOD 2.32
4 24/09 08:01 JAJA0002 SIX GOD 1.16
5 24/09 07:19 BEUKCEUE SIX GOD 2.32
TOP DOUBLE
ลำดับที่ วันที่ ชื่อ แจ๊คพอต ชนะ
1 24/09 08:41 ETJDAY TWINS 2.32
2 24/09 08:41 KHORODS TWINS 0.23
3 24/09 08:41 ICAL32 TWINS 1.16
4 24/09 08:40 ZAKIRI08 TWINS 2.32
5 24/09 08:37 ERO77 TWINS 2.32
Last Jackpot
ลำดับที่ วันที่ ชื่อ แจ๊คพอต ชนะ
1 24/09 08:41 IDNPKR09 PURE BIG 1.16
2 24/09 08:41 SUSUENAK77 PURE SMALL 0.23
3 24/09 08:41 DASTIM PURE BIG 2.32
4 24/09 08:41 ETJDAY TWINS 2.32
5 24/09 08:41 JIS99 PURE BIG 2.32
6 24/09 08:41 KHORODS TWINS 0.23
7 24/09 08:41 ICAL32 TWINS 1.16
8 24/09 08:41 C0419703 PURE SMALL 1.16
9 24/09 08:40 FAKRI04 PURE BIG 1.16
10 24/09 08:40 F7D4317C PURE BIG 2.32
11 24/09 08:40 B616D69A46B990 PURE BIG 0.23
12 24/09 08:40 ZAKIRI08 TWINS 2.32
13 24/09 08:39 ABDRHMAN PURE SMALL 2.32
14 24/09 08:39 BANKPREMAN PURE SMALL 1.16
15 24/09 08:38 NUSA02002 PURE BIG 2.32
16 24/09 08:38 MILIK85 PURE BIG 0.23
17 24/09 08:37 ANABULE_MU PURE BIG 1.16
18 24/09 08:37 SUYANTO1S PURE BIG 0.23
19 24/09 08:37 ERO77 TWINS 2.32
20 24/09 08:37 F1C43739 PURE SMALL 0.23
21 24/09 08:36 PONCO21 PURE BIG 2.32
22 24/09 08:36 ANDIRFA TWINS 1.16
23 24/09 08:35 LILISOMANT PURE SMALL 2.32
24 24/09 08:35 LANJUT9900 PURE BIG 1.16
25 24/09 08:35 JUVEDERI PURE SMALL 2.32
26 24/09 08:35 SCBDANU303 PURE BIG 1.16
27 24/09 08:35 GABUGA6666 PURE SMALL 1.16
28 24/09 08:34 ZERRO66 PURE BIG 2.32
29 24/09 08:34 ARDYARDIAN PURE SMALL 2.32
30 24/09 08:34 C0419703 PURE BIG 1.16
31 24/09 08:34 HEROO332 PURE BIG 2.32
32 24/09 08:34 COLOR21 PURE SMALL 1.16
33 24/09 08:34 POKIUKIU88 PURE BIG 0.23
34 24/09 08:33 SAKAZAKII PURE BIG 1.16
35 24/09 08:33 HOKKY330 TWINS 2.32
36 24/09 08:33 JUARO01 PURE SMALL 2.32
37 24/09 08:33 POYOK12 PURE BIG 0.23
38 24/09 08:32 JAMBUBATU0 PURE SMALL 1.16
39 24/09 08:32 MELATIPKR1 PURE SMALL 0.23
40 24/09 08:32 ESTELLE11 PURE BIG 2.32
41 24/09 08:32 PIANBOY PURE SMALL 1.16
42 24/09 08:32 DHIEW999 PURE BIG 2.32
43 24/09 08:32 CHAJOZZC PURE SMALL 2.32
44 24/09 08:32 P00017186743 PURE SMALL 2.32
45 24/09 08:31 JENGKELI12 PURE BIG 2.32
46 24/09 08:31 KURNIA9999 PURE SMALL 1.16
47 24/09 08:30 ALVINO122 TWINS 0.23
48 24/09 08:30 ANABULE_MU TWINS 2.32
49 24/09 08:29 MASDC PURE BIG 2.32
50 24/09 08:29 IONZC98C88Z PURE BIG 2.32

JACKPOT WINNER CEME

แจ็คพอตที่รวมกันจากทั้งผู้เล่นและตัวแทนจำหน่าย ตัวแทนจำหน่ายควรซื้อรางวัลแจ็คพอตให้มากที่สุดเท่าที่จำนวนของผู้เล่นทุกคนที่กำลังเล่น ตัวอย่างเช่นถ้ามีผู้เล่น 3 คนที่กำลังนั่งอยู่ในการเล่นและตัวแทนจำหน่ายได้ตัดสินใจที่จะซื้อ 100

แจ็คพอตจากนั้นในช่วงเวลานี้ตัวแทนจำหน่ายที่จะซื้อรางวัลมากที่สุดเท่าที่ 3 X 100 = 300 เหรียญสหรัฐ

แจ็คพ็อตไม่จำเป็นที่จะต้องซื้อ แต่เราให้มันเป็นคุณสมบัติพิเศษให้กับสมาชิกของ siampoker.net มีแจ็คพ็อต 3 ราคให้คุณสามารถเลือกที่จะซื้อคือ 100 เหรียญสหรัฐ, 500, และ 100

รางวัลแจ็คพอตหลายระบบใน siampoker.net ดังต่อไปนี้:

  1. small Pure X 50 ราคาแจ็คพอตที่คุณจะซื้อ
      (ตัวอย่าง: คุณซื้อแล้ว 100 X 50 = 5000)
  2. Large Pure X 50 แจ็คพอตที่คุณจะซื้อ
      (ตัวอย่าง: คุณซื้อแล้ว 100X 50 = 5000)
  3. Doublet X 150 ราคาแจ็คพอตที่คุณจะซื้อ
      (ตัวอย่าง: คุณซื้อแล้ว 100x 150 = 15000)
  4. Six Dewa X ราคา 6,666 แจ็คพอตที่คุณจะซื้อ
      (ตัวอย่าง: คุณซื้อแล้ว 100 X 6666 = 666600)

คำอธิบายดังกล่าวข้างต้นเป็นคำอธิบาย ของหลายแจ็คพอต siampoker.net ขอขอบคุณและขอแสดงความยินดีในการเล่นเกมของเรา เราหวังว่าทุกท่านโชคดี!

TOP SIX DEWA
ลำดับที่ วันที่ ชื่อ แจ๊คพอต ชนะ
1 24/09 08:40 MUNN4 SIX GOD 1.16
2 24/09 08:40 NGEK89 SIX GOD 2.32
3 24/09 08:32 FANTASYY SIX GOD 2.32
4 24/09 08:20 AKUHOKI08 SIX GOD 2.32
5 24/09 08:20 HARLUCK SIX GOD 2.32
TOP DOUBLE
ลำดับที่ วันที่ ชื่อ แจ๊คพอต ชนะ
1 24/09 08:41 SUTOTO TWINS 2.32
2 24/09 08:41 C842130 TWINS 1.16
3 24/09 08:41 G56792704A2977 TWINS 0.23
4 24/09 08:40 TENGEX12 TWINS 2.32
5 24/09 08:40 AL3TZRYR9E TWINS 2.32
Last Jackpot
ลำดับที่ วันที่ ชื่อ แจ๊คพอต ชนะ
1 24/09 08:41 SUTOTO TWINS 2.32
2 24/09 08:41 C842130 TWINS 1.16
3 24/09 08:41 JALARAJUT PURE BIG 2.32
4 24/09 08:41 SARBAL45 PURE SMALL 0.23
5 24/09 08:41 CIKUPA11 PURE SMALL 2.32
6 24/09 08:41 B616173D277428 PURE SMALL 1.16
7 24/09 08:41 PIKAPMONKU PURE SMALL 2.32
8 24/09 08:41 CRAZYYYYY PURE SMALL 2.32
9 24/09 08:41 KURNIA1992 PURE SMALL 1.16
10 24/09 08:41 G56792704A2977 TWINS 0.23
11 24/09 08:40 TEGUH2210 PURE BIG 1.16
12 24/09 08:40 KRIS75 PURE BIG 0.23
13 24/09 08:40 DIENS73 PURE BIG 2.32
14 24/09 08:40 BREWOK150 PURE BIG 2.32
15 24/09 08:40 BREWOK150 PURE BIG 2.32
16 24/09 08:40 C80ONARD978 PURE BIG 2.32
17 24/09 08:40 JANDAPLANE PURE BIG 2.32
18 24/09 08:40 ION559T5FIQ PURE BIG 1.16
19 24/09 08:40 AKUHOKI08 PURE BIG 2.32
20 24/09 08:40 MUNN4 SIX GOD 1.16
21 24/09 08:40 NGEK89 SIX GOD 2.32
22 24/09 08:40 TENGEX12 TWINS 2.32
23 24/09 08:40 AL3TZRYR9E TWINS 2.32
24 24/09 08:40 KIMHU88 PURE SMALL 2.32
25 24/09 08:40 F778689EBE925 PURE SMALL 1.16
26 24/09 08:40 OPI PURE SMALL 2.32
27 24/09 08:40 KJU2IT4WII PURE SMALL 2.32
28 24/09 08:40 DENRA001 TWINS 2.32
29 24/09 08:40 AAVIKNAM PURE BIG 1.16
30 24/09 08:40 CENTONG03 PURE BIG 2.32
31 24/09 08:40 CENTONG03 TWINS 2.32
32 24/09 08:39 AD13PRA PURE SMALL 2.32
33 24/09 08:39 BASRENGAA PURE BIG 1.16
34 24/09 08:39 REHAN7 TWINS 2.32
35 24/09 08:39 LORD23 PURE BIG 2.32
36 24/09 08:39 SARBAL45 PURE BIG 0.23
37 24/09 08:39 CIKUPA11 PURE BIG 2.32
38 24/09 08:39 BODOAMATSU PURE BIG 2.32
39 24/09 08:39 NGEK89 PURE BIG 2.32
40 24/09 08:39 AJIE_7408 PURE SMALL 2.32
41 24/09 08:39 F778689EBE925 PURE SMALL 1.16
42 24/09 08:39 MULANJAYAA TWINS 2.32
43 24/09 08:39 E0207QSF54 TWINS 2.32
44 24/09 08:39 NURILIANO7 PURE BIG 0.23
45 24/09 08:39 D53E04235C5606 PURE SMALL 0.23
46 24/09 08:38 REHAN7 PURE SMALL 2.32
47 24/09 08:38 DONAL898 PURE BIG 1.16
48 24/09 08:38 LASER08 PURE BIG 2.32
49 24/09 08:38 TUBYESS PURE SMALL 2.32
50 24/09 08:38 GEMBALA02_ PURE SMALL 1.16